This is the latest recevied weather packets stored in our database for station/object KD8FRE. If no packets are shown the sender has not sent any weather packets the latest 10 day(s).
| Time | Temp. | Humidity | Pressure | Rain* | Wind** | Luminosity | Snow |
|---|---|---|---|---|---|---|---|
| 1778099762 | 10.56° C | 45% | 1012.9 hPa | 0 mm | - | 116 W/m² | - |
| 1778099458 | 10.56° C | 44% | 1012.9 hPa | 0 mm | - | 109 W/m² | - |
| 1778099156 | 10.56° C | 44% | 1013.1 hPa | 0 mm | - | 142 W/m² | - |
| 1778098852 | 10.56° C | 44% | 1012.9 hPa | 0 mm | - | 149 W/m² | - |
| 1778098550 | 10.56° C | 45% | 1012.5 hPa | 0 mm | - | 148 W/m² | - |
| 1778098246 | 10° C | 45% | 1012.7 hPa | 0 mm | - | 168 W/m² | - |
| 1778097942 | 10° C | 45% | 1012.9 hPa | 0 mm | - | 104 W/m² | - |
| 1778097639 | 10° C | 44% | 1013.2 hPa | 0 mm | - | 63 W/m² | - |
| 1778097336 | 10° C | 45% | 1013 hPa | 0 mm | - | 91 W/m² | - |
| 1778097032 | 10° C | 44% | 1012.9 hPa | 0 mm | - | 122 W/m² | - |
| 1778096730 | 10.56° C | 45% | 1012.9 hPa | 0 mm | - | 160 W/m² | - |
| 1778096426 | 10.56° C | 46% | 1013 hPa | 0 mm | - | 464 W/m² | - |
| 1778096124 | 10.56° C | 45% | 1012.8 hPa | 0 mm | - | 181 W/m² | - |
| 1778095821 | 10.56° C | 46% | 1012.9 hPa | 0 mm | - | 236 W/m² | - |
| 1778095517 | 10.56° C | 45% | 1013.2 hPa | 0 mm | - | 191 W/m² | - |
| 1778095213 | 10.56° C | 46% | 1013 hPa | 0 mm | - | 225 W/m² | - |
| 1778094910 | 10.56° C | 46% | 1013.5 hPa | 0 mm | - | 148 W/m² | - |
| 1778094606 | 10° C | 49% | 1013.3 hPa | 0 mm | - | 201 W/m² | - |
| 1778094303 | 10° C | 45% | 1013.4 hPa | 0 mm | - | 203 W/m² | - |
| 1778094000 | 10.56° C | 44% | 1013.1 hPa | 0 mm | - | 227 W/m² | - |
| 1778093698 | 10° C | 49% | 1013.1 hPa | 0 mm | - | 279 W/m² | - |
| 1778093394 | 10° C | 46% | 1013.2 hPa | 0 mm | - | 214 W/m² | - |
| 1778093092 | 10° C | 46% | 1013 hPa | 0 mm | - | 189 W/m² | - |
| 1778092788 | 9.44° C | 47% | 1013 hPa | 0 mm | - | 275 W/m² | - |
| 1778092484 | 9.44° C | 48% | 1013.1 hPa | 0 mm | - | 199 W/m² | - |
* Rain latest hour (hover to see other rain measurements)
** Current wind speed in m/s (hover to see current wind gust speed)